Location: Hodgeman County Ambulance
(38.0844°N, 99.8949°W)
Time: 14:40:55
(UTC+00:00)

Meteor 1-31 Rocket - Pass Details

Date: 27 October 2020
Orbit: 520 x 546 km, 97.6° (Epoch: 03 December)

Event Time Altitude Azimuth Distance (km) Brightness Sun altitude
Rises 12:24:24 0° 354° (N) 2,722 6.2 -7.8°
Reaches altitude 10° 12:27:02 10° 336° (NNW) 1,824 5.1 -7.3°
Maximum altitude 12:29:45 18° 292° (WNW) 1,368 4.2 -6.8°
Drops below altitude 10° 12:32:28 10° 248° (WSW) 1,811 5.0 -6.3°
Sets 12:35:04 0° 229° (SW) 2,696 6.0 -5.8°
